• In Österreich
  • Länderverzeichnis
  • Für 7 Tage
  • Wassertemperatur
  • Satellitenkarten
  • Wetterkarte
  • News
  • Widgets
  • user-avatar
    Anmelden

    Stündliche Wetter Góra Kalwaria

    Heute, 23 Februar, Freitag

    Zeit Temperatur Niederschläge Wind Luftdruck Luftfeuchtigkeit
    00:00 -8°C° 0 mm 3 m/S 761 mmHg 64%
    01:00 -8°C° 0 mm 3 m/S 760 mmHg 66%
    02:00 -8°C° 0 mm 3 m/S 760 mmHg 67%
    03:00 -8°C° 0 mm 3 m/S 760 mmHg 69%
    04:00 -8°C° 0 mm 3 m/S 760 mmHg 70%
    05:00 -8°C° 0 mm 3 m/S 760 mmHg 72%
    06:00 -8°C° 0 mm 3 m/S 760 mmHg 73%
    07:00 -8°C° 0 mm 3 m/S 760 mmHg 74%
    08:00 -7°C° 0 mm 3 m/S 760 mmHg 72%
    09:00 -7°C° 0 mm 3 m/S 760 mmHg 69%
    10:00 -6°C° 0 mm 3 m/S 760 mmHg 67%
    11:00 -6°C° 0 mm 3 m/S 760 mmHg 64%
    12:00 -5°C° 0 mm 3 m/S 760 mmHg 61%
    13:00 -4°C° 0 mm 2 m/S 760 mmHg 58%
    14:00 -5°C° 0 mm 3 m/S 760 mmHg 56%
    15:00 -5°C° 0 mm 3 m/S 760 mmHg 54%
    16:00 -5°C° 0 mm 3 m/S 759 mmHg 52%
    17:00 -6°C° 0 mm 3 m/S 759 mmHg 52%
    18:00 -6°C° 0 mm 3 m/S 759 mmHg 52%
    19:00 -5°C° 0 mm 2 m/S 760 mmHg 52%
    20:00 -6°C° 0 mm 2 m/S 759 mmHg 53%
    21:00 -6°C° 0 mm 2 m/S 759 mmHg 53%
    22:00 -4°C° 0 mm 1 m/S 759 mmHg 53%
    23:00 -4°C° 0 mm 1 m/S 759 mmHg 53%

    Morgen, 24 Februar, Samstag

    Zeit Temperatur Niederschläge Wind Luftdruck Luftfeuchtigkeit
    00:00 -4°C° 0 mm 1 m/S 759 mmHg 53%
    01:00 -4°C° 0 mm 1 m/S 758 mmHg 52%
    02:00 -4°C° 0,1 mm 1 m/S 758 mmHg 57%
    03:00 -6°C° 0,1 mm 1 m/S 758 mmHg 62%
    04:00 -7°C° 0,1 mm 2 m/S 758 mmHg 67%
    05:00 -8°C° 0,1 mm 3 m/S 758 mmHg 71%
    06:00 -8°C° 0,1 mm 3 m/S 759 mmHg 74%
    07:00 -9°C° 0,1 mm 4 m/S 759 mmHg 77%
    08:00 -10°C° 0,1 mm 5 m/S 760 mmHg 70%
    09:00 -10°C° 0,1 mm 6 m/S 760 mmHg 63%
    10:00 -10°C° 0,1 mm 6 m/S 761 mmHg 56%
    11:00 -10°C° 0 mm 6 m/S 761 mmHg 53%
    12:00 -11°C° 0 mm 7 m/S 761 mmHg 49%
    13:00 -9°C° 0 mm 7 m/S 761 mmHg 45%
    14:00 -11°C° 0 mm 7 m/S 761 mmHg 47%
    15:00 -11°C° 0 mm 7 m/S 761 mmHg 49%
    16:00 -11°C° 0 mm 7 m/S 762 mmHg 52%
    17:00 -11°C° 0 mm 6 m/S 762 mmHg 54%
    18:00 -11°C° 0 mm 6 m/S 762 mmHg 56%
    19:00 -12°C° 0 mm 6 m/S 763 mmHg 58%
    20:00 -12°C° 0 mm 6 m/S 763 mmHg 60%
    21:00 -12°C° 0 mm 6 m/S 763 mmHg 61%
    22:00 -13°C° 0 mm 5 m/S 763 mmHg 63%
    23:00 -13°C° 0 mm 5 m/S 764 mmHg 64%

    übermorgen, 25 Februar, Sonntag

    Zeit Temperatur Niederschläge Wind Luftdruck Luftfeuchtigkeit
    00:00 -13°C° 0 mm 5 m/S 764 mmHg 64%
    01:00 -12°C° 0 mm 4 m/S 764 mmHg 65%
    02:00 -14°C° 0 mm 4 m/S 764 mmHg 66%
    03:00 -14°C° 0 mm 4 m/S 764 mmHg 67%
    04:00 -14°C° 0 mm 4 m/S 764 mmHg 68%
    05:00 -14°C° 0 mm 4 m/S 764 mmHg 69%
    06:00 -14°C° 0 mm 4 m/S 764 mmHg 70%
    07:00 -14°C° 0 mm 4 m/S 764 mmHg 71%
    08:00 -14°C° 0 mm 4 m/S 764 mmHg 68%
    09:00 -12°C° 0 mm 3 m/S 764 mmHg 65%
    10:00 -12°C° 0 mm 3 m/S 764 mmHg 61%
    11:00 -10°C° 0 mm 3 m/S 764 mmHg 57%
    12:00 -10°C° 0 mm 3 m/S 764 mmHg 53%
    13:00 -9°C° 0 mm 3 m/S 764 mmHg 49%
    14:00 -9°C° 0 mm 3 m/S 763 mmHg 50%
    15:00 -9°C° 0 mm 3 m/S 763 mmHg 50%
    16:00 -9°C° 0 mm 3 m/S 763 mmHg 50%
    17:00 -9°C° 0 mm 3 m/S 763 mmHg 52%
    18:00 -10°C° 0 mm 3 m/S 763 mmHg 54%
    19:00 -10°C° 0 mm 3 m/S 763 mmHg 56%
    20:00 -10°C° 0 mm 3 m/S 763 mmHg 57%
    21:00 -12°C° 0 mm 3 m/S 764 mmHg 59%
    22:00 -12°C° 0 mm 3 m/S 764 mmHg 61%
    23:00 -12°C° 0 mm 3 m/S 764 mmHg 62%

    26 Februar, Montag

    Zeit Temperatur Niederschläge Wind Luftdruck Luftfeuchtigkeit
    00:00 -12°C° 0 mm 3 m/S 764 mmHg 63%
    01:00 -13°C° 0 mm 3 m/S 764 mmHg 65%
    02:00 -13°C° 0 mm 3 m/S 763 mmHg 66%
    03:00 -13°C° 0 mm 3 m/S 763 mmHg 67%
    04:00 -13°C° 0 mm 3 m/S 763 mmHg 69%
    05:00 -13°C° 0 mm 3 m/S 763 mmHg 70%
    06:00 -14°C° 0 mm 3 m/S 763 mmHg 70%
    07:00 -14°C° 0 mm 3 m/S 763 mmHg 71%
    08:00 -13°C° 0 mm 3 m/S 763 mmHg 67%
    09:00 -13°C° 0 mm 3 m/S 763 mmHg 63%
    10:00 -13°C° 0 mm 3 m/S 763 mmHg 59%
    11:00 -12°C° 0 mm 3 m/S 763 mmHg 56%
    12:00 -12°C° 0 mm 3 m/S 763 mmHg 53%
    13:00 -10°C° 0 mm 3 m/S 763 mmHg 50%
    14:00 -10°C° 0 mm 3 m/S 762 mmHg 50%
    15:00 -10°C° 0 mm 3 m/S 762 mmHg 50%
    16:00 -11°C° 0 mm 4 m/S 762 mmHg 50%
    17:00 -11°C° 0 mm 4 m/S 762 mmHg 53%
    18:00 -12°C° 0 mm 4 m/S 762 mmHg 55%
    19:00 -12°C° 0 mm 4 m/S 762 mmHg 57%
    20:00 -12°C° 0 mm 4 m/S 762 mmHg 59%
    21:00 -14°C° 0 mm 4 m/S 762 mmHg 60%
    22:00 -14°C° 0 mm 4 m/S 762 mmHg 62%
    23:00 -14°C° 0 mm 4 m/S 761 mmHg 63%

    27 Februar, Dienstag

    Zeit Temperatur Niederschläge Wind Luftdruck Luftfeuchtigkeit
    00:00 -14°C° 0 mm 4 m/S 761 mmHg 65%
    01:00 -15°C° 0 mm 4 m/S 761 mmHg 66%
    02:00 -14°C° 0 mm 3 m/S 760 mmHg 67%
    03:00 -14°C° 0 mm 3 m/S 760 mmHg 69%
    04:00 -14°C° 0 mm 3 m/S 760 mmHg 70%
    05:00 -15°C° 0 mm 4 m/S 760 mmHg 70%
    06:00 -16°C° 0 mm 4 m/S 759 mmHg 71%
    07:00 -16°C° 0 mm 4 m/S 759 mmHg 72%
    08:00 -15°C° 0 mm 4 m/S 759 mmHg 67%
    09:00 -15°C° 0 mm 4 m/S 759 mmHg 63%
    10:00 -14°C° 0 mm 4 m/S 759 mmHg 59%
    11:00 -14°C° 0 mm 5 m/S 758 mmHg 56%
    12:00 -13°C° 0 mm 5 m/S 758 mmHg 53%
    13:00 -13°C° 0 mm 5 m/S 758 mmHg 50%
    14:00 -12°C° 0 mm 5 m/S 757 mmHg 50%
    15:00 -12°C° 0 mm 5 m/S 757 mmHg 51%
    16:00 -12°C° 0 mm 5 m/S 757 mmHg 51%
    17:00 -13°C° 0 mm 5 m/S 757 mmHg 54%
    18:00 -13°C° 0 mm 5 m/S 757 mmHg 57%
    19:00 -13°C° 0 mm 5 m/S 757 mmHg 60%
    20:00 -14°C° 0 mm 5 m/S 758 mmHg 63%
    21:00 -14°C° 0 mm 5 m/S 758 mmHg 65%
    22:00 -14°C° 0 mm 5 m/S 758 mmHg 68%
    23:00 -14°C° 0 mm 5 m/S 758 mmHg 69%

    28 Februar, Mittwoch

    Zeit Temperatur Niederschläge Wind Luftdruck Luftfeuchtigkeit
    00:00 -15°C° 0 mm 5 m/S 758 mmHg 70%
    01:00 -15°C° 0 mm 5 m/S 758 mmHg 72%
    02:00 -15°C° 0,1 mm 5 m/S 757 mmHg 73%
    03:00 -15°C° 0,1 mm 5 m/S 757 mmHg 74%
    04:00 -17°C° 0,1 mm 5 m/S 757 mmHg 75%
    05:00 -17°C° 0,1 mm 5 m/S 757 mmHg 76%
    06:00 -17°C° 0,1 mm 5 m/S 757 mmHg 77%
    07:00 -17°C° 0,1 mm 5 m/S 757 mmHg 78%
    08:00 -15°C° 0,1 mm 4 m/S 757 mmHg 75%
    09:00 -15°C° 0,1 mm 4 m/S 757 mmHg 73%
    10:00 -14°C° 0,1 mm 4 m/S 757 mmHg 71%
    11:00 -14°C° 0 mm 4 m/S 757 mmHg 69%
    12:00 -12°C° 0 mm 4 m/S 756 mmHg 67%
    13:00 -11°C° 0 mm 4 m/S 756 mmHg 65%
    14:00 -11°C° 0 mm 4 m/S 756 mmHg 66%
    15:00 -11°C° 0 mm 4 m/S 756 mmHg 68%
    16:00 -12°C° 0 mm 3 m/S 756 mmHg 69%
    17:00 -12°C° 0 mm 3 m/S 756 mmHg 71%
    18:00 -12°C° 0 mm 3 m/S 756 mmHg 74%
    19:00 -12°C° 0 mm 3 m/S 756 mmHg 76%
    20:00 -12°C° 0 mm 2 m/S 756 mmHg 77%
    21:00 -12°C° 0 mm 2 m/S 756 mmHg 77%
    22:00 -10°C° 0 mm 1 m/S 756 mmHg 78%
    23:00 -10°C° 0 mm 1 m/S 756 mmHg 79%
    Mehr zeigen